352  
ASUS43 KDTX 211510  
RWRMI  
MICHIGAN HOURLY REGIONAL WEATHER ROUNDUP  
NATIONAL WEATHER SERVICE DETROIT/PONTIAC MI  
1100 AM EDT SAT MAY 21 2022  
 
NOTE: "FAIR" INDICATES FEW OR NO CLOUDS BELOW 12,000 FEET WITH NO  
SIGNIFICANT WEATHER AND/OR TO VISIBILITY
.  
 
MIZ047>049-052>055-059>063-066>070-074>076-081>083-211600-  
SOUTHEAST LOWER MICHIGAN  
 
CITY SKY/WX TMP DP RH WIND PRES REMARKS
 
ADRIAN PTSUNNY 68 63 84 S9 29.91R  
ALMA PTSUNNY 64 55 75 W7 29.92S  
ANN ARBOR PTSUNNY 66 63 90 SW6 29.87R  
BAD AXE RAIN 62 61 98 W7 29.94R  
CARO LGT RAIN 60 59 97 CALM 29.91F  
DETROIT CITY LGT RAIN 67 63 87 NE6 29.85F  
DETROIT LGT RAIN 68 63 84 NE7 29.85F  
FLINT PTSUNNY 60 58 92 N13 29.87F  
GROSSE ILE PTSUNNY 65 65 100 S6 29.88F  
HILLSDALE PTSUNNY 65 63 93 SW8 29.96R  
HOWELL PTSUNNY 59 57 94 NW7G18 29.88R  
 
CITY SKY/WX TMP DP RH WIND PRES REMARKS
 
JACKSON PTSUNNY 60 57 89 W9 29.94R  
LAMBERTVILLE PTSUNNY 68 66 96 SE6 29.91R  
LANSING PTSUNNY 63 57 81 NW6 29.91F  
LAPEER LGT RAIN 60 60 100 E3 29.86F  
MASON PTSUNNY 61 57 86 N7 29.90R  
MONROE PTSUNNY 67 65 93 S6 29.88F  
MT. CLEMENS LGT RAIN 67 67 100 NW5 29.89F  
PONTIAC CLOUDY 62 60 93 NE13G26 29.79F  
PORT HOPE N/A 57 29 34 CALM 29.93R  
PORT HURON LGT RAIN 66 63 88 W3 29.94R  
TRI CITIES PTSUNNY 62 55 77 W6 29.92F  
MIDLAND PTSUNNY 65 57 77 CALM 29.92S  
TROY CLOUDY 64 60 85 NE7 29.85F  
SAGINAW HB CLOUDY 61 57 86 CALM 29.92F  

 
MIZ043>046-050>051-056>058-064>065-071>073-077>080-211600-  
SOUTHWEST LOWER MICHIGAN  
 
CITY SKY/WX TMP DP RH WIND PRES REMARKS
 
BATTLE CREEK CLOUDY 62 54 74 W9 29.97R  
BENTON HARBOR CLOUDY 61 55 81 SW12 30.01R  
BIG RAPIDS PTSUNNY 62 53 71 CALM 29.90F  
COLDWATER CLOUDY 60 58 92 W12 29.99R  
FREMONT FAIR 60 51 72 CALM 29.91F  
HOLLAND CLOUDY 61 53 75 NW6 29.93F  
GRAND RAPIDS CLOUDY 63 53 70 N6 29.89F  
IONIA FAIR 62 56 80 N7 29.89F  
KALAMAZOO CLOUDY 63 53 70 SW8 29.99R  
LUDINGTON PTSUNNY 59 50 71 N5 29.93R  
MARSHALL CLOUDY 62 57 84 W8 29.96R  
MOUNT PLEASANT PTSUNNY 63 53 72 W5 29.91S  
MUSKEGON CLOUDY 62 52 69 NW5 29.93R  
SOUTH HAVEN CLOUDY 60 54 82 SW9 30.01R  

 
MIZ016>042-211600-  
NORTHERN LOWER MICHIGAN  
 
CITY SKY/WX TMP DP RH WIND PRES REMARKS
 
ALPENA MOSUNNY 63 50 62 W6 29.91R  
BEAVER ISLAND MOSUNNY 49 41 71 NW12G18 29.94R  
BELLAIRE MOSUNNY 56 47 72 N6 29.92S  
CADILLAC MOSUNNY 59 48 67 CALM 29.88F  
CHARLEVOIX MOSUNNY 50 44 79 N7 29.94R  
FRANKFORT MOSUNNY 54 42 63 N9G21 29.93R  
GRAYLING MOSUNNY 59 48 67 NW3 29.90R  
HARBOR SPRINGS SUNNY 49 44 82 W8 29.93R  
HOUGHTON LAKE MOSUNNY 61 49 64 W6 29.91S  
MANISTEE MOSUNNY 60 50 69 NW6 29.91F  
OSCODA PTSUNNY 65 53 63 W6 29.92R  
PELLSTON SUNNY 54 43 66 W14 29.93R  
ROGERS CITY CLOUDY 56 49 78 N6 29.92R  
TRAVERSE CITY MOSUNNY 57 45 64 NE12 29.90S  

 
MIZ007>008-015-211600-  
EASTERN UPPER MICHIGAN  
 
CITY SKY/WX TMP DP RH WIND PRES REMARKS
 
KINROSS MOSUNNY 51 44 77 NW16 29.91R  
MACKINAC ISLAN SUNNY 49 48 97 W7 29.90R  
NEWBERRY SUNNY 49 41 72 NW13G20 29.93R  
S. S. MARIE CLOUDY 46 39 76 NW14G22 29.91R  

 
MIZ004>006-011>014-085-211600-  
CENTRAL UPPER MICHIGAN  
 
CITY SKY/WX TMP DP RH WIND PRES REMARKS
 
MANISTIQUE PTSUNNY 51 40 65 N17G24 29.94R  
ESCANABA MOSUNNY 52 37 56 NW14G21 29.94S  
MENOMINEE PTSUNNY 54 40 59 N9 29.94R  
SAWYER-GWINN CLOUDY 43 37 81 NW13G18 29.95R  
MUNISING N/A 40 35 83 NW17G24 29.99R WCI 31  

 
MIZ001>003-009>011-084-211600-  
WESTERN UPPER MICHIGAN  
 
CITY SKY/WX TMP DP RH WIND PRES REMARKS
 
IRON MOUNTAIN MOSUNNY 49 34 56 NW13G18 29.94F  
HOUGHTON MOSUNNY 43 32 65 NW16G24 29.98F  
COPPER HARBOR N/A 41 35 79 N15 29.99R  
IRONWOOD PTSUNNY 44 33 65 N12 30.03R  

 
 
ABBREVIATIONS USED IN REMARKS  
TC - TEMPERATURE IN CELSIUS  
WCI - WIND CHILL INDEX  
HX - HEAT INDEX  
VSB - VISIBILITY  
 
 
 
CLICK HERE TO GO TO PREVIOUS BULLETINS.

The Nexlab MI Page Main Text Page